Year,Month,Day,Hour,Minute,Value (Times are PST for temperature in C)
2013,11,14,00,00,7.80
2013,11,14,00,01,7.90
2013,11,14,00,02,7.90
2013,11,14,00,03,7.90
2013,11,14,00,04,7.90
2013,11,14,00,05,8.00
2013,11,14,00,06,8.00
2013,11,14,00,07,8.00
2013,11,14,00,08,8.10
2013,11,14,00,09,8.10
2013,11,14,00,10,8.10
2013,11,14,00,11,8.10
2013,11,14,00,12,8.10
2013,11,14,00,13,8.10
2013,11,14,00,14,8.10
2013,11,14,00,15,8.10
2013,11,14,00,16,8.10
2013,11,14,00,17,8.10
2013,11,14,00,18,8.10
2013,11,14,00,19,8.10
2013,11,14,00,20,8.00
2013,11,14,00,21,8.00
2013,11,14,00,22,7.90
2013,11,14,00,23,7.90
2013,11,14,00,24,7.80
2013,11,14,00,25,7.80
2013,11,14,00,26,7.80
2013,11,14,00,27,7.80
2013,11,14,00,28,7.80
2013,11,14,00,29,7.80
2013,11,14,00,30,7.80
2013,11,14,00,31,7.80
2013,11,14,00,32,7.80
2013,11,14,00,33,7.80
2013,11,14,00,34,7.80
2013,11,14,00,35,7.80
2013,11,14,00,36,7.80
2013,11,14,00,37,7.80
2013,11,14,00,38,7.80
2013,11,14,00,39,7.80
2013,11,14,00,40,7.80
2013,11,14,00,41,7.80
2013,11,14,00,42,7.80
2013,11,14,00,43,7.80
2013,11,14,00,44,7.80
2013,11,14,00,45,7.80
2013,11,14,00,46,7.80
2013,11,14,00,47,7.80
2013,11,14,00,48,7.80
2013,11,14,00,49,7.70
2013,11,14,00,50,7.70
2013,11,14,00,51,7.70
2013,11,14,00,52,7.60
2013,11,14,00,53,7.60
2013,11,14,00,54,7.60
2013,11,14,00,55,7.60
2013,11,14,00,56,7.60
2013,11,14,00,57,7.60
2013,11,14,00,58,7.50
2013,11,14,00,59,7.50
2013,11,14,01,00,7.50
2013,11,14,01,01,7.50
2013,11,14,01,02,7.50
2013,11,14,01,03,7.50
2013,11,14,01,04,7.50
2013,11,14,01,05,7.50
2013,11,14,01,06,7.50
2013,11,14,01,07,7.60
2013,11,14,01,08,7.60
2013,11,14,01,09,7.60
2013,11,14,01,10,7.60
2013,11,14,01,11,7.70
2013,11,14,01,12,7.70
2013,11,14,01,13,7.70
2013,11,14,01,14,7.70
2013,11,14,01,15,7.70
2013,11,14,01,16,7.80
2013,11,14,01,17,7.80
2013,11,14,01,18,7.80
2013,11,14,01,19,7.80
2013,11,14,01,20,7.80
2013,11,14,01,21,7.80
2013,11,14,01,22,7.80
2013,11,14,01,23,7.80
2013,11,14,01,24,7.80
2013,11,14,01,25,7.80
2013,11,14,01,26,7.80
2013,11,14,01,27,7.80
2013,11,14,01,28,7.90
2013,11,14,01,29,7.90
2013,11,14,01,30,8.00
2013,11,14,01,31,8.00
2013,11,14,01,32,8.00
2013,11,14,01,33,8.00
2013,11,14,01,34,8.00
2013,11,14,01,35,8.00
2013,11,14,01,36,8.10
2013,11,14,01,37,8.10
2013,11,14,01,38,8.10
2013,11,14,01,39,8.20
2013,11,14,01,40,8.20
2013,11,14,01,41,8.20
2013,11,14,01,42,8.20
2013,11,14,01,43,8.20
2013,11,14,01,44,8.20
2013,11,14,01,45,8.30
2013,11,14,01,46,8.30
2013,11,14,01,47,8.30
2013,11,14,01,48,8.30
2013,11,14,01,49,8.30
2013,11,14,01,50,8.30
2013,11,14,01,51,8.30
2013,11,14,01,52,8.30
2013,11,14,01,53,8.40
2013,11,14,01,54,8.40
2013,11,14,01,55,8.40
2013,11,14,01,56,8.40
2013,11,14,01,57,8.40
2013,11,14,01,58,8.40
2013,11,14,01,59,8.40
2013,11,14,02,00,8.40
2013,11,14,02,01,8.40
2013,11,14,02,02,8.40
2013,11,14,02,03,8.30
2013,11,14,02,04,8.30
2013,11,14,02,05,8.20
2013,11,14,02,06,8.20
2013,11,14,02,07,8.10
2013,11,14,02,08,8.10
2013,11,14,02,09,8.00
2013,11,14,02,10,8.00
2013,11,14,02,11,8.00
2013,11,14,02,12,8.00
2013,11,14,02,13,8.00
2013,11,14,02,14,7.90
2013,11,14,02,15,7.90
2013,11,14,02,16,7.90
2013,11,14,02,17,7.90
2013,11,14,02,18,7.90
2013,11,14,02,19,7.90
2013,11,14,02,20,7.90
2013,11,14,02,21,7.90
2013,11,14,02,22,7.90
2013,11,14,02,23,7.90
2013,11,14,02,24,7.90
2013,11,14,02,25,7.90
2013,11,14,02,26,7.90
2013,11,14,02,27,7.90
2013,11,14,02,28,7.80
2013,11,14,02,29,7.80
2013,11,14,02,30,7.80
2013,11,14,02,31,7.80
2013,11,14,02,32,7.80
2013,11,14,02,33,7.80
2013,11,14,02,34,7.80
2013,11,14,02,35,7.80
2013,11,14,02,36,7.90
2013,11,14,02,37,7.90
2013,11,14,02,38,8.00
2013,11,14,02,39,8.00
2013,11,14,02,40,8.10
2013,11,14,02,41,8.10
2013,11,14,02,42,8.10
2013,11,14,02,43,8.10
2013,11,14,02,44,8.10
2013,11,14,02,45,8.10
2013,11,14,02,46,8.10
2013,11,14,02,47,8.20
2013,11,14,02,48,8.20
2013,11,14,02,49,8.20
2013,11,14,02,50,8.20
2013,11,14,02,51,8.20
2013,11,14,02,52,8.20
2013,11,14,02,53,8.20
2013,11,14,02,54,8.20
2013,11,14,02,55,8.20
2013,11,14,02,56,8.20
2013,11,14,02,57,8.20
2013,11,14,02,58,8.20
2013,11,14,02,59,8.30
2013,11,14,03,00,8.30
2013,11,14,03,01,8.30
2013,11,14,03,02,8.30
2013,11,14,03,03,8.30
2013,11,14,03,04,8.30
2013,11,14,03,05,8.30
2013,11,14,03,06,8.30
2013,11,14,03,07,8.30
2013,11,14,03,08,8.20
2013,11,14,03,09,8.20
2013,11,14,03,10,8.20
2013,11,14,03,11,8.20
2013,11,14,03,12,8.20
2013,11,14,03,13,8.20
2013,11,14,03,14,8.20
2013,11,14,03,15,8.20
2013,11,14,03,16,8.20
2013,11,14,03,17,8.20
2013,11,14,03,18,8.20
2013,11,14,03,19,8.20
2013,11,14,03,20,8.20
2013,11,14,03,21,8.20
2013,11,14,03,22,8.20
2013,11,14,03,23,8.20
2013,11,14,03,24,8.20
2013,11,14,03,25,8.20
2013,11,14,03,26,8.20
2013,11,14,03,27,8.20
2013,11,14,03,28,8.20
2013,11,14,03,29,8.20
2013,11,14,03,30,8.20
2013,11,14,03,31,8.20
2013,11,14,03,32,8.20
2013,11,14,03,33,8.20
2013,11,14,03,34,8.20
2013,11,14,03,35,8.20
2013,11,14,03,36,8.20
2013,11,14,03,37,8.20
2013,11,14,03,38,8.20
2013,11,14,03,39,8.20
2013,11,14,03,40,8.20
2013,11,14,03,41,8.20
2013,11,14,03,42,8.20
2013,11,14,03,43,8.20
2013,11,14,03,44,8.20
2013,11,14,03,45,8.20
2013,11,14,03,46,8.20
2013,11,14,03,47,8.20
2013,11,14,03,48,8.20
2013,11,14,03,49,8.10
2013,11,14,03,50,8.10
2013,11,14,03,51,8.10
2013,11,14,03,52,8.10
2013,11,14,03,53,8.10
2013,11,14,03,54,8.10
2013,11,14,03,55,8.10
2013,11,14,03,56,8.10
2013,11,14,03,57,8.10
2013,11,14,03,58,8.10
2013,11,14,03,59,8.10
2013,11,14,04,00,8.10
2013,11,14,04,01,8.10
2013,11,14,04,02,8.10
2013,11,14,04,03,8.10
2013,11,14,04,04,8.10
2013,11,14,04,05,8.10
2013,11,14,04,06,8.10
2013,11,14,04,07,8.00
2013,11,14,04,08,8.00
2013,11,14,04,09,8.00
2013,11,14,04,10,8.00
2013,11,14,04,11,7.90
2013,11,14,04,12,7.90
2013,11,14,04,13,7.90
2013,11,14,04,14,7.80
2013,11,14,04,15,7.80
2013,11,14,04,16,7.80
2013,11,14,04,17,7.80
2013,11,14,04,18,7.80
2013,11,14,04,19,7.80
2013,11,14,04,20,7.70
2013,11,14,04,21,7.70
2013,11,14,04,22,7.70
2013,11,14,04,23,7.70
2013,11,14,04,24,7.70
2013,11,14,04,25,7.70
2013,11,14,04,26,7.60
2013,11,14,04,27,7.60
2013,11,14,04,28,7.60
2013,11,14,04,29,7.50
2013,11,14,04,30,7.50
2013,11,14,04,31,7.40
2013,11,14,04,32,7.40
2013,11,14,04,33,7.50
2013,11,14,04,34,7.50
2013,11,14,04,35,7.50
2013,11,14,04,36,7.60
2013,11,14,04,37,7.60
2013,11,14,04,38,7.60
2013,11,14,04,39,7.60
2013,11,14,04,40,7.60
2013,11,14,04,41,7.60
2013,11,14,04,42,7.60
2013,11,14,04,43,7.60
2013,11,14,04,44,7.60
2013,11,14,04,45,7.60
2013,11,14,04,46,7.70
2013,11,14,04,47,7.70
2013,11,14,04,48,7.70
2013,11,14,04,49,7.70
2013,11,14,04,50,7.70
2013,11,14,04,51,7.70
2013,11,14,04,52,7.70
2013,11,14,04,53,7.70
2013,11,14,04,54,7.70
2013,11,14,04,55,7.70
2013,11,14,04,56,7.70
2013,11,14,04,57,7.60
2013,11,14,04,58,7.60
2013,11,14,04,59,7.60
2013,11,14,05,00,7.50
2013,11,14,05,01,7.50
2013,11,14,05,02,7.40
2013,11,14,05,03,7.40
2013,11,14,05,04,7.30
2013,11,14,05,05,7.30
2013,11,14,05,06,7.30
2013,11,14,05,07,7.30
2013,11,14,05,08,7.30
2013,11,14,05,09,7.20
2013,11,14,05,10,7.20
2013,11,14,05,11,7.20
2013,11,14,05,12,7.10
2013,11,14,05,13,7.10
2013,11,14,05,14,7.10
2013,11,14,05,15,7.10
2013,11,14,05,16,7.00
2013,11,14,05,17,7.00
2013,11,14,05,18,6.90
2013,11,14,05,19,6.90
2013,11,14,05,20,6.90
2013,11,14,05,21,6.80
2013,11,14,05,22,6.80
2013,11,14,05,23,6.80
2013,11,14,05,24,6.80
2013,11,14,05,25,6.80
2013,11,14,05,26,6.80
2013,11,14,05,27,6.80
2013,11,14,05,28,6.90
2013,11,14,05,29,6.90
2013,11,14,05,30,6.80
2013,11,14,05,31,6.80
2013,11,14,05,32,6.80
2013,11,14,05,33,6.80
2013,11,14,05,34,6.80
2013,11,14,05,35,6.80
2013,11,14,05,36,6.80
2013,11,14,05,37,6.80
2013,11,14,05,38,6.80
2013,11,14,05,39,6.80
2013,11,14,05,40,6.80
2013,11,14,05,41,6.70
2013,11,14,05,42,6.70
2013,11,14,05,43,6.70
2013,11,14,05,44,6.70
2013,11,14,05,45,6.70
2013,11,14,05,46,6.70
2013,11,14,05,47,6.70
2013,11,14,05,48,6.60
2013,11,14,05,49,6.60
2013,11,14,05,50,6.60
2013,11,14,05,51,6.50
2013,11,14,05,52,6.50
2013,11,14,05,53,6.50
2013,11,14,05,54,6.50
2013,11,14,05,55,6.40
2013,11,14,05,56,6.40
2013,11,14,05,57,6.40
2013,11,14,05,58,6.40
2013,11,14,05,59,6.40
2013,11,14,06,00,6.40
2013,11,14,06,01,6.40
2013,11,14,06,02,6.30
2013,11,14,06,03,6.30
2013,11,14,06,04,6.30
2013,11,14,06,05,6.30
2013,11,14,06,06,6.30
2013,11,14,06,07,6.30
2013,11,14,06,08,6.30
2013,11,14,06,09,6.30
2013,11,14,06,10,6.30
2013,11,14,06,11,6.30
2013,11,14,06,12,6.20
2013,11,14,06,13,6.20
2013,11,14,06,14,6.20
2013,11,14,06,15,6.20
2013,11,14,06,16,6.20
2013,11,14,06,17,6.20
2013,11,14,06,18,6.20
2013,11,14,06,19,6.10
2013,11,14,06,20,6.00
2013,11,14,06,21,6.00
2013,11,14,06,22,5.90
2013,11,14,06,23,5.90
2013,11,14,06,24,5.90
2013,11,14,06,25,5.90
2013,11,14,06,26,5.90
2013,11,14,06,27,5.90
2013,11,14,06,28,5.90
2013,11,14,06,29,5.90
2013,11,14,06,30,5.80
2013,11,14,06,31,5.80
2013,11,14,06,32,5.80
2013,11,14,06,33,5.80
2013,11,14,06,34,5.80
2013,11,14,06,35,5.80
2013,11,14,06,36,5.80
2013,11,14,06,37,5.80
2013,11,14,06,38,5.80
2013,11,14,06,39,5.80
2013,11,14,06,40,5.80
2013,11,14,06,41,5.80
2013,11,14,06,42,5.80
2013,11,14,06,43,5.80
2013,11,14,06,44,5.80
2013,11,14,06,45,5.80
2013,11,14,06,46,5.70
2013,11,14,06,47,5.70
2013,11,14,06,48,5.70
2013,11,14,06,49,5.70
2013,11,14,06,50,5.70
2013,11,14,06,51,5.70
2013,11,14,06,52,5.70
2013,11,14,06,53,5.70
2013,11,14,06,54,5.70
2013,11,14,06,55,5.70
2013,11,14,06,56,5.70
2013,11,14,06,57,5.70
2013,11,14,06,58,5.80
2013,11,14,06,59,5.80
2013,11,14,07,00,5.80
2013,11,14,07,01,5.80
2013,11,14,07,02,5.80
2013,11,14,07,03,5.80
2013,11,14,07,04,5.80
2013,11,14,07,05,5.80
2013,11,14,07,06,5.90
2013,11,14,07,07,5.90
2013,11,14,07,08,5.90
2013,11,14,07,09,5.90
2013,11,14,07,10,5.90
2013,11,14,07,11,5.90
2013,11,14,07,12,6.00
2013,11,14,07,13,6.00
2013,11,14,07,14,6.00
2013,11,14,07,15,6.10
2013,11,14,07,16,6.10
2013,11,14,07,17,6.10
2013,11,14,07,18,6.10
2013,11,14,07,19,6.10
2013,11,14,07,20,6.00
2013,11,14,07,21,6.00
2013,11,14,07,22,6.00
2013,11,14,07,23,6.00
2013,11,14,07,24,6.00
2013,11,14,07,25,5.90
2013,11,14,07,26,6.00
2013,11,14,07,27,6.00
2013,11,14,07,28,6.00
2013,11,14,07,29,6.00
2013,11,14,07,30,6.00
2013,11,14,07,31,6.00
2013,11,14,07,32,6.00
2013,11,14,07,33,6.00
2013,11,14,07,34,6.00
2013,11,14,07,35,5.90
2013,11,14,07,36,6.00
2013,11,14,07,37,5.90
2013,11,14,07,38,5.90
2013,11,14,07,39,5.90
2013,11,14,07,40,5.90
2013,11,14,07,41,5.90
2013,11,14,07,42,5.90
2013,11,14,07,43,5.90
2013,11,14,07,44,5.90
2013,11,14,07,45,5.90
2013,11,14,07,46,5.90
2013,11,14,07,47,6.00
2013,11,14,07,48,6.00
2013,11,14,07,49,6.00
2013,11,14,07,50,6.00
2013,11,14,07,51,6.00
2013,11,14,07,52,6.00
2013,11,14,07,53,6.00
2013,11,14,07,54,6.00
2013,11,14,07,55,6.00
2013,11,14,07,56,6.00
2013,11,14,07,57,6.00
2013,11,14,07,58,6.00
2013,11,14,07,59,6.00
2013,11,14,08,00,6.00
2013,11,14,08,01,6.00
2013,11,14,08,02,6.00
2013,11,14,08,03,6.00
2013,11,14,08,04,6.00
2013,11,14,08,05,6.10
2013,11,14,08,06,6.10
2013,11,14,08,07,6.10
2013,11,14,08,08,6.10
2013,11,14,08,09,6.10
2013,11,14,08,10,6.10
2013,11,14,08,11,6.10
2013,11,14,08,12,6.10
2013,11,14,08,13,6.10
2013,11,14,08,14,6.10
2013,11,14,08,15,6.10
2013,11,14,08,16,6.10
2013,11,14,08,17,6.20
2013,11,14,08,18,6.20
2013,11,14,08,19,6.20
2013,11,14,08,20,6.20
2013,11,14,08,21,6.20
2013,11,14,08,22,6.20
2013,11,14,08,23,6.30
2013,11,14,08,24,6.30
2013,11,14,08,25,6.30
2013,11,14,08,26,6.30
2013,11,14,08,27,6.30
2013,11,14,08,28,6.30
2013,11,14,08,29,6.30
2013,11,14,08,30,6.30
2013,11,14,08,31,6.30
2013,11,14,08,32,6.30
2013,11,14,08,33,6.30
2013,11,14,08,34,6.30
2013,11,14,08,35,6.30
2013,11,14,08,36,6.30
2013,11,14,08,37,6.30
2013,11,14,08,38,6.40
2013,11,14,08,39,6.40
2013,11,14,08,40,6.40
2013,11,14,08,41,6.40
2013,11,14,08,42,6.50
2013,11,14,08,43,6.50
2013,11,14,08,44,6.50
2013,11,14,08,45,6.50
2013,11,14,08,46,6.50
2013,11,14,08,47,6.60
2013,11,14,08,48,6.60
2013,11,14,08,49,6.60
2013,11,14,08,50,6.50
2013,11,14,08,51,6.50
2013,11,14,08,52,6.50
2013,11,14,08,53,6.50
2013,11,14,08,54,6.50
2013,11,14,08,55,6.50
2013,11,14,08,56,6.50
2013,11,14,08,57,6.50
2013,11,14,08,58,6.50
2013,11,14,08,59,6.50
2013,11,14,09,00,6.50
2013,11,14,09,01,6.50
2013,11,14,09,02,6.50
2013,11,14,09,03,6.50
2013,11,14,09,04,6.50
2013,11,14,09,05,6.50
2013,11,14,09,06,6.50
2013,11,14,09,07,6.50
2013,11,14,09,08,6.50
2013,11,14,09,09,6.50
2013,11,14,09,10,6.50
2013,11,14,09,11,6.50
2013,11,14,09,12,6.50
2013,11,14,09,13,6.60
2013,11,14,09,14,6.60
2013,11,14,09,15,6.60
2013,11,14,09,16,6.60
2013,11,14,09,17,6.60
2013,11,14,09,18,6.60
2013,11,14,09,19,6.70
2013,11,14,09,20,6.70
2013,11,14,09,21,6.70
2013,11,14,09,22,6.70
2013,11,14,09,23,6.70
2013,11,14,09,24,6.70
2013,11,14,09,25,6.70
2013,11,14,09,26,6.70
2013,11,14,09,27,6.70
2013,11,14,09,28,6.80
2013,11,14,09,29,6.80
2013,11,14,09,30,6.80
2013,11,14,09,31,6.80
2013,11,14,09,32,6.90
2013,11,14,09,33,6.90
2013,11,14,09,34,7.00
2013,11,14,09,35,7.00
2013,11,14,09,36,7.00
2013,11,14,09,37,7.10
2013,11,14,09,38,7.10
2013,11,14,09,39,7.20
2013,11,14,09,40,7.20
2013,11,14,09,41,7.20
2013,11,14,09,42,7.30
2013,11,14,09,43,7.30
2013,11,14,09,44,7.30
2013,11,14,09,45,7.30
2013,11,14,09,46,7.40
2013,11,14,09,47,7.40
2013,11,14,09,48,7.40
2013,11,14,09,49,7.40
2013,11,14,09,50,7.40
2013,11,14,09,51,7.40
2013,11,14,09,52,7.40
2013,11,14,09,53,7.40
2013,11,14,09,54,7.50
2013,11,14,09,55,7.50
2013,11,14,09,56,7.50
2013,11,14,09,57,7.60
2013,11,14,09,58,7.60
2013,11,14,09,59,7.60
2013,11,14,10,00,7.60
2013,11,14,10,01,7.60
2013,11,14,10,02,7.70
2013,11,14,10,03,7.70
2013,11,14,10,04,7.70
2013,11,14,10,05,7.70
2013,11,14,10,06,7.70
2013,11,14,10,07,7.70
2013,11,14,10,08,7.70
2013,11,14,10,09,7.70
2013,11,14,10,10,7.70
2013,11,14,10,11,7.80
2013,11,14,10,12,7.80
2013,11,14,10,13,7.80
2013,11,14,10,14,7.80
2013,11,14,10,15,7.80
2013,11,14,10,16,7.80
2013,11,14,10,17,7.80
2013,11,14,10,18,7.80
2013,11,14,10,19,7.80
2013,11,14,10,20,7.90
2013,11,14,10,21,7.90
2013,11,14,10,22,7.90
2013,11,14,10,23,7.90
2013,11,14,10,24,8.00
2013,11,14,10,25,8.00
2013,11,14,10,26,8.00
2013,11,14,10,27,8.10
2013,11,14,10,28,8.00
2013,11,14,10,29,8.10
2013,11,14,10,30,8.10
2013,11,14,10,31,8.10
2013,11,14,10,32,8.10
2013,11,14,10,33,8.10
2013,11,14,10,34,8.10
2013,11,14,10,35,8.10
2013,11,14,10,36,8.20
2013,11,14,10,37,8.20
2013,11,14,10,38,8.20
2013,11,14,10,39,8.20
2013,11,14,10,40,8.20
2013,11,14,10,41,8.20
2013,11,14,10,42,8.20
2013,11,14,10,43,8.20
2013,11,14,10,44,8.20
2013,11,14,10,45,8.30
2013,11,14,10,46,8.30
2013,11,14,10,47,8.30
2013,11,14,10,48,8.30
2013,11,14,10,49,8.30
2013,11,14,10,50,8.30
2013,11,14,10,51,8.30
2013,11,14,10,52,8.30
2013,11,14,10,53,8.40
2013,11,14,10,54,8.40
2013,11,14,10,55,8.40
2013,11,14,10,56,8.40
2013,11,14,10,57,8.40
2013,11,14,10,58,8.50
2013,11,14,10,59,8.50
2013,11,14,11,00,8.50
2013,11,14,11,01,8.60
2013,11,14,11,02,8.60
2013,11,14,11,03,8.60
2013,11,14,11,04,8.70
2013,11,14,11,05,8.70
2013,11,14,11,06,8.80
2013,11,14,11,07,8.80
2013,11,14,11,08,8.80
2013,11,14,11,09,8.90
2013,11,14,11,10,8.90
2013,11,14,11,11,8.90
2013,11,14,11,12,8.90
2013,11,14,11,13,8.90
2013,11,14,11,14,8.90
2013,11,14,11,15,8.90
2013,11,14,11,16,8.90
2013,11,14,11,17,8.90
2013,11,14,11,18,8.80
2013,11,14,11,19,8.80
2013,11,14,11,20,8.80
2013,11,14,11,21,8.80
2013,11,14,11,22,8.80
2013,11,14,11,23,8.80
2013,11,14,11,24,8.80
2013,11,14,11,25,8.80
2013,11,14,11,26,8.80
2013,11,14,11,27,8.80
2013,11,14,11,28,8.80
2013,11,14,11,29,8.80
2013,11,14,11,30,8.80
2013,11,14,11,31,8.80
2013,11,14,11,32,8.80
2013,11,14,11,33,8.90
2013,11,14,11,34,8.90
2013,11,14,11,35,8.90
2013,11,14,11,36,9.00
2013,11,14,11,37,9.00
2013,11,14,11,38,9.10
2013,11,14,11,39,9.10
2013,11,14,11,40,9.20
2013,11,14,11,41,9.30
2013,11,14,11,42,9.40
2013,11,14,11,43,9.50
2013,11,14,11,44,9.70
2013,11,14,11,45,9.80
2013,11,14,11,46,9.80
2013,11,14,11,47,10.00
2013,11,14,11,48,10.10
2013,11,14,11,49,10.20
2013,11,14,11,50,10.40
2013,11,14,11,51,10.50
2013,11,14,11,52,10.60
2013,11,14,11,53,10.60
2013,11,14,11,54,10.60
2013,11,14,11,55,10.70
2013,11,14,11,56,10.70
2013,11,14,11,57,10.80
2013,11,14,11,58,10.80
2013,11,14,11,59,10.70
2013,11,14,12,00,10.70
2013,11,14,12,01,10.70
2013,11,14,12,02,10.70
2013,11,14,12,03,10.70
2013,11,14,12,04,10.70
2013,11,14,12,05,10.60
2013,11,14,12,06,10.60
2013,11,14,12,07,10.60
2013,11,14,12,08,10.50
2013,11,14,12,09,10.50
2013,11,14,12,10,10.40
2013,11,14,12,11,10.40
2013,11,14,12,12,10.40
2013,11,14,12,13,10.40
2013,11,14,12,14,10.40
2013,11,14,12,15,10.40
2013,11,14,12,16,10.40
2013,11,14,12,17,10.50
2013,11,14,12,18,10.50
2013,11,14,12,19,10.60
2013,11,14,12,20,10.60
2013,11,14,12,21,10.60
2013,11,14,12,22,10.70
2013,11,14,12,23,10.70
2013,11,14,12,24,10.70
2013,11,14,12,25,10.80
2013,11,14,12,26,10.90
2013,11,14,12,27,11.00
2013,11,14,12,28,11.10
2013,11,14,12,29,11.10
2013,11,14,12,30,11.20
2013,11,14,12,31,11.30
2013,11,14,12,32,11.30
2013,11,14,12,33,11.40
2013,11,14,12,34,11.50
2013,11,14,12,35,11.50
2013,11,14,12,36,11.60
2013,11,14,12,37,11.50
2013,11,14,12,38,11.50
2013,11,14,12,39,11.40
2013,11,14,12,40,11.30
2013,11,14,12,41,11.30
2013,11,14,12,42,11.30
2013,11,14,12,43,11.30
2013,11,14,12,44,11.30
2013,11,14,12,45,11.40
2013,11,14,12,46,11.50
2013,11,14,12,47,11.50
2013,11,14,12,48,11.60
2013,11,14,12,49,11.60
2013,11,14,12,50,11.50
2013,11,14,12,51,11.60
2013,11,14,12,52,11.50
2013,11,14,12,53,11.50
2013,11,14,12,54,11.50
2013,11,14,12,55,11.50
2013,11,14,12,56,11.40
2013,11,14,12,57,11.40
2013,11,14,12,58,11.40
2013,11,14,12,59,11.40
2013,11,14,13,00,11.40
2013,11,14,13,01,11.30
2013,11,14,13,02,11.30
2013,11,14,13,03,11.30
2013,11,14,13,04,11.40
2013,11,14,13,05,11.40
2013,11,14,13,06,11.40
2013,11,14,13,07,11.40
2013,11,14,13,08,11.50
2013,11,14,13,09,11.50
2013,11,14,13,10,11.60
2013,11,14,13,11,11.60
2013,11,14,13,12,11.60
2013,11,14,13,13,11.60
2013,11,14,13,14,11.70
2013,11,14,13,15,11.60
2013,11,14,13,16,11.70
2013,11,14,13,17,11.70
2013,11,14,13,18,11.70
2013,11,14,13,19,11.70
2013,11,14,13,20,11.70
2013,11,14,13,21,11.70
2013,11,14,13,22,11.70
2013,11,14,13,23,11.70
2013,11,14,13,24,11.60
2013,11,14,13,25,11.50
2013,11,14,13,26,11.50
2013,11,14,13,27,11.40
2013,11,14,13,28,11.40
2013,11,14,13,29,11.40
2013,11,14,13,30,11.40
2013,11,14,13,31,11.40
2013,11,14,13,32,11.40
2013,11,14,13,33,11.40
2013,11,14,13,34,11.40
2013,11,14,13,35,11.50
2013,11,14,13,36,11.50
2013,11,14,13,37,11.50
2013,11,14,13,38,11.60
2013,11,14,13,39,11.60
2013,11,14,13,40,11.60
2013,11,14,13,41,11.70
2013,11,14,13,42,11.70
2013,11,14,13,43,11.70
2013,11,14,13,44,11.70
2013,11,14,13,45,11.70
2013,11,14,13,46,11.70
2013,11,14,13,47,11.70
2013,11,14,13,48,11.70
2013,11,14,13,49,11.60
2013,11,14,13,50,11.50
2013,11,14,13,51,11.40
2013,11,14,13,52,11.40
2013,11,14,13,53,11.30
2013,11,14,13,54,11.30
2013,11,14,13,55,11.30
2013,11,14,13,56,11.30
2013,11,14,13,57,11.30
2013,11,14,13,58,11.40
2013,11,14,13,59,11.40
2013,11,14,14,00,11.40
2013,11,14,14,01,11.50
2013,11,14,14,02,11.50
2013,11,14,14,03,11.50
2013,11,14,14,04,11.50
2013,11,14,14,05,11.50
2013,11,14,14,06,11.50
2013,11,14,14,07,11.40
2013,11,14,14,08,11.40
2013,11,14,14,09,11.50
2013,11,14,14,10,11.50
2013,11,14,14,11,11.60
2013,11,14,14,12,11.60
2013,11,14,14,13,11.70
2013,11,14,14,14,11.70
2013,11,14,14,15,11.70
2013,11,14,14,16,11.80
2013,11,14,14,17,11.80
2013,11,14,14,18,11.80
2013,11,14,14,19,11.70
2013,11,14,14,20,11.70
2013,11,14,14,21,11.70
2013,11,14,14,22,11.70
2013,11,14,14,23,11.70
2013,11,14,14,24,11.70
2013,11,14,14,25,11.70
2013,11,14,14,26,11.80
2013,11,14,14,27,11.80
2013,11,14,14,28,11.80
2013,11,14,14,29,11.70
2013,11,14,14,30,11.80
2013,11,14,14,31,11.80
2013,11,14,14,32,11.80
2013,11,14,14,33,11.80
2013,11,14,14,34,11.90
2013,11,14,14,35,11.90
2013,11,14,14,36,11.90
2013,11,14,14,37,11.90
2013,11,14,14,38,12.00
2013,11,14,14,39,12.00
2013,11,14,14,40,12.10
2013,11,14,14,41,12.10
2013,11,14,14,42,12.10
2013,11,14,14,43,12.20
2013,11,14,14,44,12.20
2013,11,14,14,45,12.20
2013,11,14,14,46,12.20
2013,11,14,14,47,12.20
2013,11,14,14,48,12.20
2013,11,14,14,49,12.20
2013,11,14,14,50,12.20
2013,11,14,14,51,12.20
2013,11,14,14,52,12.10
2013,11,14,14,53,12.10
2013,11,14,14,54,12.10
2013,11,14,14,55,12.10
2013,11,14,14,56,12.10
2013,11,14,14,57,12.10
2013,11,14,14,58,12.10
2013,11,14,14,59,12.10
2013,11,14,15,00,12.10
2013,11,14,15,01,12.10
2013,11,14,15,02,12.10
2013,11,14,15,03,12.10
2013,11,14,15,04,12.10
2013,11,14,15,05,12.10
2013,11,14,15,06,12.10
2013,11,14,15,07,12.00
2013,11,14,15,08,12.00
2013,11,14,15,09,11.90
2013,11,14,15,10,11.80
2013,11,14,15,11,11.70
2013,11,14,15,12,11.60
2013,11,14,15,13,11.50
2013,11,14,15,14,11.40
2013,11,14,15,15,11.30
2013,11,14,15,16,11.30
2013,11,14,15,17,11.30
2013,11,14,15,18,11.30
2013,11,14,15,19,11.30
2013,11,14,15,20,11.30
2013,11,14,15,21,11.20
2013,11,14,15,22,11.20
2013,11,14,15,23,11.20
2013,11,14,15,24,11.20
2013,11,14,15,25,11.20
2013,11,14,15,26,11.30
2013,11,14,15,27,11.30
2013,11,14,15,28,11.20
2013,11,14,15,29,11.20
2013,11,14,15,30,11.20
2013,11,14,15,31,11.10
2013,11,14,15,32,11.10
2013,11,14,15,33,11.00
2013,11,14,15,34,11.00
2013,11,14,15,35,11.00
2013,11,14,15,36,11.00
2013,11,14,15,37,11.00
2013,11,14,15,38,10.90
2013,11,14,15,39,10.90
2013,11,14,15,40,10.90
2013,11,14,15,41,10.90
2013,11,14,15,42,10.80
2013,11,14,15,43,10.80
2013,11,14,15,44,10.80
2013,11,14,15,45,10.80
2013,11,14,15,46,10.80
2013,11,14,15,47,10.70
2013,11,14,15,48,10.70
2013,11,14,15,49,10.70
2013,11,14,15,50,10.60
2013,11,14,15,51,10.60
2013,11,14,15,52,10.60
2013,11,14,15,53,10.60
2013,11,14,15,54,10.60
2013,11,14,15,55,10.60
2013,11,14,15,56,10.50
2013,11,14,15,57,10.50
2013,11,14,15,58,10.40
2013,11,14,15,59,10.40
2013,11,14,16,00,10.40
2013,11,14,16,01,10.40
2013,11,14,16,02,10.40
2013,11,14,16,03,10.30
2013,11,14,16,04,10.30
2013,11,14,16,05,10.30
2013,11,14,16,06,10.30
2013,11,14,16,07,10.20
2013,11,14,16,08,10.20
2013,11,14,16,09,10.20
2013,11,14,16,10,10.10
2013,11,14,16,11,10.10
2013,11,14,16,12,10.10
2013,11,14,16,13,10.00
2013,11,14,16,14,10.00
2013,11,14,16,15,9.90
2013,11,14,16,16,9.90
2013,11,14,16,17,9.90
2013,11,14,16,18,9.90
2013,11,14,16,19,9.80
2013,11,14,16,20,9.80
2013,11,14,16,21,9.80
2013,11,14,16,22,9.80
2013,11,14,16,23,9.80
2013,11,14,16,24,9.70
2013,11,14,16,25,9.70
2013,11,14,16,26,9.70
2013,11,14,16,27,9.70
2013,11,14,16,28,9.70
2013,11,14,16,29,9.60
2013,11,14,16,30,9.60
2013,11,14,16,31,9.60
2013,11,14,16,32,9.60
2013,11,14,16,33,9.50
2013,11,14,16,34,9.50
2013,11,14,16,35,9.50
2013,11,14,16,36,9.40
2013,11,14,16,37,9.40
2013,11,14,16,38,9.40
2013,11,14,16,39,9.40
2013,11,14,16,40,9.40
2013,11,14,16,41,9.40
2013,11,14,16,42,9.30
2013,11,14,16,43,9.30
2013,11,14,16,44,9.30
2013,11,14,16,45,9.30
2013,11,14,16,46,9.30
2013,11,14,16,47,9.30
2013,11,14,16,48,9.30
2013,11,14,16,49,9.30
2013,11,14,16,50,9.30
2013,11,14,16,51,9.20
2013,11,14,16,52,9.20
2013,11,14,16,53,9.20
2013,11,14,16,54,9.20
2013,11,14,16,55,9.20
2013,11,14,16,56,9.20
2013,11,14,16,57,9.20
2013,11,14,16,58,9.20
2013,11,14,16,59,9.10
2013,11,14,17,00,9.10
2013,11,14,17,01,9.10
2013,11,14,17,02,9.10
2013,11,14,17,03,9.00
2013,11,14,17,04,9.00
2013,11,14,17,05,9.00
2013,11,14,17,06,8.90
2013,11,14,17,07,8.90
2013,11,14,17,08,8.90
2013,11,14,17,09,8.90
2013,11,14,17,10,8.90
2013,11,14,17,11,8.80
2013,11,14,17,12,8.80
2013,11,14,17,13,8.80
2013,11,14,17,14,8.80
2013,11,14,17,15,8.80
2013,11,14,17,16,8.80
2013,11,14,17,17,8.80
2013,11,14,17,18,8.70
2013,11,14,17,19,8.70
2013,11,14,17,20,8.70
2013,11,14,17,21,8.60
2013,11,14,17,22,8.60
2013,11,14,17,23,8.50
2013,11,14,17,24,8.50
2013,11,14,17,25,8.40
2013,11,14,17,26,8.40
2013,11,14,17,27,8.30
2013,11,14,17,28,8.30
2013,11,14,17,29,8.30
2013,11,14,17,30,8.20
2013,11,14,17,31,8.20
2013,11,14,17,32,8.10
2013,11,14,17,33,8.10
2013,11,14,17,34,8.00
2013,11,14,17,35,7.90
2013,11,14,17,36,7.90
2013,11,14,17,37,7.90
2013,11,14,17,38,7.80
2013,11,14,17,39,7.80
2013,11,14,17,40,7.70
2013,11,14,17,41,7.60
2013,11,14,17,42,7.60
2013,11,14,17,43,7.50
2013,11,14,17,44,7.50
2013,11,14,17,45,7.40
2013,11,14,17,46,7.40
2013,11,14,17,47,7.40
2013,11,14,17,48,7.40
2013,11,14,17,49,7.30
2013,11,14,17,50,7.30
2013,11,14,17,51,7.30
2013,11,14,17,52,7.30
2013,11,14,17,53,7.30
2013,11,14,17,54,7.30